Weather History for Harrisburg, PA

Change the Weather History Date:

Monday, March 11, 2013

  Actual Average Record
Temperature  
Mean Temperature 48 °F -  
Max Temperature 60 °F 44 °F 70 °F (2009)
Min Temperature 37 °F 28 °F 12 °F (2003)
Degree Days  
Heating Degree Days 16    
Moisture  
Dew Point 40 °F    
Average Humidity 78    
Maximum Humidity 93    
Minimum Humidity 44    
Precipitation  
Precipitation 0.04 in - - ()
Sea Level Pressure  
Sea Level Pressure 30.11 in    
Wind  
Wind Speed 8 mph (ESE)    
Max Wind Speed 16 mph    
Max Gust Speed 23 mph    
Visibility 9 miles    
Events Rain    
Averages and records for this station are not official NWS values.
T = Trace of Precipitation, MM = Missing Value Source: NWS Daily Summary

Daily Weather History Graph

Daily Weather History Graph

Search for Another Location

Airport:

Trip Planner

Search our weather history database for the weather conditions in past years. The results will help you decide how hot, cold, wet, or windy it might be!

Date:

Astronomy

Mar. 11, 2013 Rise Set
Actual Time 7:25 AM EDT 7:10 PM EDT
Civil Twilight 6:57 AM EDT 7:37 PM EDT
Nautical Twilight 6:26 AM EDT 8:08 PM EDT
Astronomical Twilight 5:54 AM EDT 8:40 PM EDT
Moon 6:57 AM EDT (3/11) 7:20 PM EDT (3/11)
Length of Visible Light 12h 39m
Length of Day
11h 45m
Waning Crescent, 0% of the Moon is Illuminated
Mar 11
Waning Crescent
Mar 11
New
Mar 19
First Quarter
Mar 27
Full
Apr 3
Last Quarter

Hourly Weather History & Observations

Time (EDT) Temp. Windchill Dew Point Humidity Pressure Visibility Wind Dir Wind Speed Gust Speed Precip Events Conditions
12:56 AM 44.1 °F 40.1 °F 33.1 °F 65% 30.23 in 10.0 mi ENE 6.9 mph - N/A   Clear
2:56 AM 41.0 °F 37.1 °F 34.0 °F 76% 30.21 in 10.0 mi Variable 5.8 mph - N/A   Clear
3:56 AM 39.0 °F 34.8 °F 35.1 °F 86% 30.20 in 10.0 mi ESE 5.8 mph - N/A   Clear
4:56 AM 39.0 °F 34.8 °F 36.0 °F 89% 30.19 in 10.0 mi East 5.8 mph - N/A   Mostly Cloudy
5:32 AM 37.4 °F - 35.6 °F 93% 30.17 in 9.0 mi Calm Calm - N/A   Scattered Clouds
5:56 AM 39.0 °F 33.4 °F 36.0 °F 89% 30.17 in 9.0 mi ESE 8.1 mph - N/A   Clear
6:56 AM 39.9 °F 34.5 °F 37.0 °F 89% 30.18 in 9.0 mi ESE 8.1 mph - N/A   Clear
7:56 AM 39.9 °F 35.1 °F 37.9 °F 93% 30.18 in 6.0 mi ESE 6.9 mph - N/A   Clear
8:13 AM 41.0 °F 35.8 °F 37.4 °F 87% 30.17 in 6.0 mi ESE 8.1 mph - N/A   Mostly Cloudy
8:25 AM 41.0 °F 36.4 °F 37.4 °F 87% 30.17 in 5.0 mi ESE 6.9 mph - N/A   Overcast
8:56 AM 43.0 °F 38.8 °F 39.0 °F 86% 30.18 in 6.0 mi ESE 6.9 mph - N/A   Mostly Cloudy
9:07 AM 42.8 °F 38.0 °F 39.2 °F 87% 30.17 in 7.0 mi SE 8.1 mph - N/A   Scattered Clouds
9:31 AM 42.8 °F 39.3 °F 39.2 °F 87% 30.18 in 7.0 mi ESE 5.8 mph - N/A   Mostly Cloudy
9:49 AM 42.8 °F 37.5 °F 39.2 °F 87% 30.18 in 7.0 mi SE 9.2 mph - N/A   Scattered Clouds
9:56 AM 43.0 °F 37.2 °F 39.0 °F 86% 30.18 in 7.0 mi ESE 10.4 mph - N/A   Partly Cloudy
10:56 AM 45.0 °F 40.1 °F 39.9 °F 82% 30.16 in 8.0 mi East 9.2 mph - N/A   Partly Cloudy
11:56 AM 46.9 °F - 41.0 °F 80% 30.15 in 9.0 mi East 8.1 mph - N/A   Clear
12:56 PM 50.0 °F - 41.0 °F 71% 30.13 in 10.0 mi East 10.4 mph - N/A   Clear
1:56 PM 52.0 °F - 39.9 °F 63% 30.10 in 10.0 mi East 12.7 mph - N/A   Clear
2:56 PM 54.0 °F - 39.9 °F 59% 30.06 in 10.0 mi ESE 12.7 mph - N/A   Clear
3:56 PM 60.1 °F - 37.9 °F 44% 30.03 in 10.0 mi SE 13.8 mph 19.6 mph N/A   Clear
4:56 PM 55.9 °F - 43.0 °F 62% 30.01 in 10.0 mi ESE 12.7 mph - N/A   Clear
5:56 PM 55.9 °F - 45.0 °F 67% 30.01 in 10.0 mi SE 11.5 mph - N/A   Overcast
6:56 PM 55.9 °F - 45.0 °F 67% 30.02 in 10.0 mi SSE 9.2 mph - N/A   Overcast
7:56 PM 55.0 °F - 46.0 °F 72% 29.99 in 10.0 mi East 12.7 mph - N/A   Mostly Cloudy
8:56 PM 54.0 °F - 46.0 °F 75% 30.01 in 10.0 mi SE 9.2 mph - 0.00 in   Overcast
9:56 PM 53.1 °F - 46.9 °F 80% 29.99 in 10.0 mi SE 15.0 mph - 0.00 in Rain Light Rain
10:56 PM 52.0 °F - 46.9 °F 83% 29.96 in 10.0 mi SE 16.1 mph - 0.00 in Rain Light Rain
11:56 PM 53.1 °F - 48.0 °F 83% 29.91 in 8.0 mi SSE 15.0 mph 23.0 mph 0.04 in Rain Light Rain